Temp
80 79 78 78 78 77 76 76 76 76 76 76 76 75 75 74 74 73 72 74 72 72 72 72 72 72 71 69 70 69 68 66 63 63 65 64 63 62 63 61 59 57 57
83 80 78 78 78 75 75 75 75 74 75 75 76 75 76 75 73 73 72 73 72 72 72 71 72 74 70 71 69 68 68 67 65 61 64 65 61 63 60 57 60 62 57
81 81 77 76 75 74 74 74 75 75 74 74 75 74 75 74 73 73 73 72 71 71 72 72 72 70 70 69 69 68 68 68 66 63 63 64 63 62 58 59 59 60 61
79 78 76 76 75 74 74 74 74 75 74 73 73 75 75 75 75 74 73 71 71 72 71 72 73 72 70 69 70 69 69 68 66 62 63 61 62 62 61 59 59 59 56
73 71 72 76 76 75 72 74 74 73 74 74 74 74 74 74 77 72 71 70 69 70 70 72 73 72 69 69 70 69 69 67 63 62 61 61 61 61 59 61 60 57 55
71 70 72 72 75 71 70 70 72 72 72 72 72 73 71 75 65 60 64 68 69 67 66 67 70 68 70 62 61 63 68 67 63 62 61 59 60 61 63 61 59 59 53
70 71 72 71 71 72 69 67 67 68 69 70 70 71 70 70 59 55 56 66 66 65 65 65 68 75 68 73 61 58 58 59 63 64 63 63 63 63 63 59 58 61 60
70 71 72 72 71 71 70 69 68 68 68 68 69 69 69 70 58 54 55 64 66 66 65 65 65 66 69 68 69 68 66 65 63 64 67 65 64 63 62 62 61 63 61
69 69 70 71 70 69 68 67 67 67 67 67 69 68 68 68 56 53 55 65 65 65 67 66 66 66 61 55 66 66 67 65 57 55 57 55 52 54 59 63 63 62 58
68 68 69 69 68 67 66 65 66 66 66 69 68 68 65 67 57 51 54 67 65 66 65 66 59 63 56 53 63 66 65 64 61 59 58 54 55 57 55 63 67 61 59
67 67 66 65 63 63 62 63 63 63 63 63 65 66 66 65 65 51 50 65 66 65 66 66 68 57 52 52 50 66 65 62 57 61 60 59 59 60 60 62 68 66 61
62 61 60 60 61 61 58 59 59 59 59 61 61 62 65 65 57 54 48 48 58 63 64 66 66 52 45 46 49 53 49 54 59 59 58 58 58 59 61 61 64 63 63
57 57 57 57 58 58 56 56 56 57 57 58 59 61 62 65 64 54 51 49 49 58 65 62 55 47 44 46 45 47 49 58 58 57 57 57 58 58 56 56 59 59 59
52 52 53 52 52 53 54 55 55 55 55 56 56 57 59 62 64 63 63 61 52 56 57 59 58 54 50 54 48 50 58 58 58 57 57 57 57 55 53 56 56 58 57
48 49 48 48 48 48 50 51 52 54 54 54 54 56 57 57 62 55 55 59 53 58 59 59 57 56 56 52 52 54 57 57 56 56 55 55 55 54 52 53 57 57 55
45 45 45 44 44 45 45 45 46 45 46 45 43 47 54 48 45 44 45 43 44 43 56 56 55 54 53 51 52 54 55 54 56 56 55 55 54 53 52 54 58 56 54
42 43 43 43 43 43 43 43 42 46 44 43 43 44 44 46 45 44 41 41 42 44 54 54 53 53 54 52 53 54 54 56 57 56 56 56 54 53 50 54 57 57 56
44 43 43 43 43 43 43 43 43 43 44 46 45 43 43 43 42 43 41 41 47 44 50 52 52 53 53 53 54 54 54 55 56 56 56 55 54 52 52 56 58 57 56
42 43 44 44 44 44 44 44 44 44 44 45 47 46 42 41 41 41 41 49 51 52 50 51 53 53 53 54 54 55 55 55 56 57 57 55 54 52 53 59 58 50 51
40 41 40 41 42 43 45 44 44 44 44 45 45 46 48 44 47 47 48 48 51 52 53 50 54 53 54 54 55 55 55 53 54 55 54 54 55 55 56 59 59 56 56
40 40 39 41 41 42 43 44 45 45 45 45 46 48 43 49 49 50 49 49 50 52 53 52 54 54 55 56 55 56 54 54 55 55 54 54 57 57 60 61 60 59 57
40 41 42 43 43 43 44 45 45 47 46 47 48 49 39 46 50 50 50 50 51 53 54 54 55 55 56 56 56 56 55 55 56 55 54 56 57 59 62 61 60 59 58
39 40 42 43 45 43 44 46 46 47 47 49 49 49 43 46 49 50 50 50 52 53 54 55 55 55 56 57 58 58 57 56 57 58 58 58 59 62 62 60 60 59 58
41 42 44 46 46 47 47 48 49 45 49 50 50 48 48 47 49 50 51 52 52 53 55 55 54 55 55 55 56 58 59 60 60 60 61 58 62 57 62 61 60 60 59
44 49 50 50 50 48 50 51 52 52 49 48 48 48 50 50 49 50 51 52 52 52 52 53 54 54 55 55 55 57 51 43 59 53 59 63 63 62 62 61 61 61 59
42 45 48 49 50 50 49 48 48 49 48 48 49 50 49 49 48 49 48 49 50 51 52 52 53 54 54 55 57 48 41 41 51 49 63 65 64 63 62 61 61 60 58
MSLP
1005.38 1005.84 1006.32 1006.74 1007.08 1007.42 1007.74 1008.00 1008.28 1008.60 1008.98 1009.42 1009.81 1010.12 1010.41 1010.58 1010.70 1010.88 1011.02 1011.05 1011.09 1011.09 1011.11 1011.16 1011.07 1011.05 1011.20 1011.43 1011.54 1011.73 1011.86 1012.52 1013.36 1014.43 1014.00 1014.93 1016.20 1016.88 1017.76 1018.56 1019.38 1020.28 1020.94
1004.85 1005.23 1005.63 1006.08 1006.56 1007.12 1007.47 1007.73 1008.07 1008.43 1008.85 1009.27 1009.60 1009.76 1009.92 1010.17 1010.34 1010.50 1010.63 1010.58 1010.72 1010.74 1010.64 1010.52 1010.51 1010.49 1010.54 1010.64 1010.97 1011.23 1011.34 1011.71 1012.35 1013.51 1013.68 1014.45 1015.56 1016.67 1017.45 1018.30 1018.89 1019.86 1020.67
1004.70 1004.93 1005.10 1005.40 1005.85 1006.39 1007.01 1007.47 1007.84 1008.19 1008.56 1008.90 1009.22 1009.37 1009.51 1009.73 1009.99 1010.08 1010.16 1010.20 1010.23 1010.21 1010.07 1010.03 1009.88 1010.05 1010.05 1010.22 1010.41 1010.65 1010.76 1010.97 1011.17 1012.47 1013.30 1013.92 1015.09 1016.16 1017.40 1017.94 1018.22 1018.99 1020.10
1004.63 1004.78 1004.87 1004.94 1005.18 1005.55 1006.05 1006.79 1007.47 1007.91 1008.24 1008.49 1008.75 1008.92 1009.06 1009.22 1009.48 1009.63 1009.70 1009.77 1009.78 1009.72 1009.64 1009.54 1009.36 1009.42 1009.58 1009.62 1009.86 1010.06 1010.12 1010.29 1010.68 1012.13 1012.99 1013.87 1014.64 1015.84 1016.40 1017.15 1017.98 1018.55 1019.74
1005.07 1005.37 1005.31 1004.90 1004.78 1005.28 1005.89 1006.36 1006.84 1007.42 1007.82 1008.05 1008.27 1008.36 1008.50 1008.71 1008.89 1009.06 1009.23 1009.38 1009.42 1009.37 1009.32 1009.21 1009.01 1008.90 1008.79 1008.71 1009.06 1009.34 1009.73 1010.05 1010.82 1011.75 1012.84 1013.70 1014.02 1014.97 1015.50 1016.23 1017.07 1018.06 1019.38
1005.21 1005.54 1005.62 1005.56 1005.43 1005.55 1005.91 1006.12 1006.38 1006.86 1007.28 1007.47 1007.64 1007.78 1007.96 1008.01 1008.07 1008.27 1008.48 1008.65 1008.78 1009.04 1009.20 1009.14 1008.92 1008.66 1008.42 1008.34 1008.23 1008.34 1008.82 1009.58 1010.73 1011.32 1011.93 1012.68 1013.23 1014.00 1014.81 1015.32 1016.24 1017.02 1018.39
1005.56 1005.69 1005.81 1005.71 1005.67 1005.56 1005.71 1006.32 1005.86 1006.17 1006.60 1006.87 1007.03 1007.22 1007.36 1007.45 1007.59 1007.73 1008.02 1008.19 1008.35 1008.50 1008.64 1008.74 1008.63 1008.20 1007.88 1007.87 1007.88 1008.01 1008.32 1008.58 1009.35 1010.38 1010.73 1011.40 1012.28 1012.86 1013.70 1014.70 1015.45 1015.57 1016.34
1005.57 1005.54 1005.66 1005.54 1005.39 1005.44 1005.50 1005.54 1005.67 1005.85 1005.92 1006.04 1006.16 1006.26 1006.40 1006.53 1006.78 1006.98 1007.23 1007.61 1007.66 1007.75 1007.89 1008.04 1008.11 1007.94 1007.61 1007.53 1007.62 1007.74 1007.97 1008.38 1009.02 1009.48 1009.90 1010.50 1011.26 1012.20 1012.50 1013.28 1014.19 1014.88 1015.70
1005.22 1005.30 1005.34 1005.26 1005.16 1005.24 1005.27 1005.24 1005.18 1005.12 1005.09 1005.10 1005.08 1005.16 1005.32 1005.54 1005.78 1006.13 1006.56 1006.77 1006.80 1006.89 1007.04 1007.16 1007.28 1007.27 1006.99 1006.92 1007.29 1007.38 1007.52 1007.90 1008.40 1008.78 1008.97 1009.91 1010.91 1011.36 1012.32 1013.24 1013.60 1014.27 1015.33
1005.02 1004.99 1005.04 1004.98 1004.86 1004.78 1004.78 1004.71 1004.58 1004.46 1004.26 1004.20 1004.02 1004.00 1004.16 1004.49 1004.81 1005.21 1005.62 1005.72 1005.90 1006.05 1006.13 1006.20 1006.18 1006.20 1006.22 1006.31 1006.70 1006.68 1006.87 1007.46 1008.38 1009.25 1009.89 1010.37 1010.68 1011.41 1012.19 1012.66 1012.52 1013.41 1014.60
1004.88 1004.82 1004.86 1004.95 1004.84 1004.78 1004.82 1004.60 1004.38 1004.17 1004.01 1003.87 1003.37 1003.17 1003.27 1003.62 1003.88 1004.25 1004.65 1004.75 1004.91 1005.12 1005.20 1005.26 1005.23 1005.16 1005.14 1005.26 1005.75 1005.72 1006.10 1006.80 1007.81 1008.56 1009.44 1009.86 1010.63 1011.49 1011.90 1012.36 1012.14 1012.75 1013.60
1004.89 1004.89 1004.93 1004.91 1004.90 1004.68 1004.56 1004.52 1004.44 1004.15 1003.77 1003.11 1003.06 1002.84 1002.58 1002.84 1003.18 1003.56 1003.87 1004.30 1004.16 1004.37 1004.29 1004.42 1004.48 1004.47 1004.53 1004.47 1005.07 1005.09 1005.53 1006.57 1007.46 1008.29 1008.86 1009.44 1010.23 1011.14 1011.79 1011.40 1012.05 1012.38 1012.94
1004.75 1004.70 1004.83 1004.71 1004.44 1004.27 1004.08 1003.93 1003.84 1003.70 1003.28 1002.75 1002.51 1001.92 1001.72 1001.76 1002.02 1002.48 1002.68 1002.90 1003.29 1003.54 1003.27 1003.48 1003.83 1004.10 1004.46 1004.70 1004.73 1005.10 1005.51 1006.23 1007.02 1007.82 1008.26 1008.87 1009.63 1010.54 1011.58 1011.90 1012.28 1012.60 1013.17
1004.59 1004.52 1004.40 1004.42 1004.21 1003.95 1003.56 1003.25 1003.01 1002.69 1002.43 1002.18 1001.77 1001.40 1001.28 1000.94 1000.77 1000.92 1001.33 1001.68 1001.96 1002.08 1002.32 1002.66 1002.98 1003.40 1004.05 1004.15 1004.97 1005.32 1005.25 1005.66 1006.22 1006.93 1007.74 1008.69 1009.51 1010.64 1012.06 1012.56 1012.83 1013.33 1014.04
1004.23 1003.98 1003.90 1003.70 1003.38 1002.96 1002.59 1002.30 1002.05 1001.66 1001.57 1001.29 1001.12 1000.94 1000.72 1000.54 1000.18 1000.34 1001.03 1001.38 1001.76 1001.31 1001.11 1001.57 1002.31 1003.02 1003.60 1004.05 1004.53 1004.89 1004.96 1005.43 1006.07 1006.70 1007.42 1008.41 1009.43 1010.73 1011.41 1012.90 1013.25 1013.51 1014.28
1003.39 1003.15 1002.90 1002.61 1002.26 1001.97 1001.73 1001.33 1001.16 1001.02 1000.85 1000.58 1000.54 1000.64 1000.40 1000.38 1000.69 1000.90 1000.70 1001.01 1001.18 1001.12 1001.21 1001.03 1001.48 1002.18 1002.74 1003.16 1003.88 1004.20 1004.49 1004.99 1005.74 1006.49 1007.27 1007.94 1009.14 1010.30 1011.29 1012.61 1013.02 1013.33 1014.23
1002.36 1001.96 1001.64 1001.35 1001.03 1000.84 1000.61 1000.33 999.93 999.72 999.63 999.63 999.67 999.65 999.78 999.89 1000.05 1000.22 1000.12 1000.26 1000.68 1001.19 1001.33 1000.80 1000.79 1001.44 1001.77 1002.29 1002.79 1003.40 1003.83 1004.50 1005.33 1006.19 1006.99 1007.74 1008.90 1010.20 1010.98 1011.72 1012.52 1013.06 1013.91
1000.84 1000.46 1000.20 999.83 999.63 999.48 999.27 999.06 998.97 998.73 998.38 998.10 998.07 998.28 998.17 998.50 998.94 999.33 999.93 1000.28 1000.72 1000.99 1000.89 1000.55 1000.51 1000.68 1001.14 1001.35 1001.94 1002.62 1003.39 1004.16 1004.98 1005.83 1006.76 1007.54 1008.66 1009.63 1010.83 1011.04 1011.66 1012.46 1013.38
999.40 998.97 998.75 998.42 998.13 997.82 997.74 997.67 997.56 997.42 997.18 996.91 996.88 996.83 996.97 997.11 997.44 997.91 998.59 999.18 999.24 999.42 999.76 1000.01 1000.14 1000.06 1000.42 1000.81 1001.23 1001.86 1002.64 1003.55 1004.25 1005.29 1006.24 1007.13 1008.17 1009.22 1010.48 1010.44 1010.96 1011.92 1012.93
998.27 997.81 997.66 997.31 996.90 996.54 996.24 996.07 996.06 995.92 995.78 995.66 995.62 995.43 995.59 995.89 996.20 996.52 996.89 997.31 997.48 997.76 998.16 998.87 999.26 999.52 999.64 1000.10 1000.71 1001.35 1002.30 1003.17 1003.96 1004.78 1005.69 1006.87 1007.57 1008.88 1009.72 1009.71 1010.37 1011.25 1012.40
996.87 996.34 995.98 995.74 995.29 994.94 994.86 994.72 994.40 994.52 994.40 994.14 993.92 993.75 993.96 994.25 994.34 994.48 994.74 995.24 995.70 996.19 996.78 997.60 998.06 998.58 998.93 999.41 1000.11 1000.91 1001.73 1002.61 1003.37 1004.32 1005.35 1006.11 1007.02 1008.01 1008.88 1009.14 1009.80 1010.62 1012.04
995.50 994.77 994.17 993.68 993.39 993.42 993.23 993.21 993.14 992.89 992.65 992.69 992.38 992.51 992.72 993.20 993.02 993.10 993.41 993.68 994.14 994.70 995.38 996.22 996.84 997.33 997.81 998.40 999.26 1000.20 1001.16 1002.04 1002.88 1003.97 1004.93 1005.88 1006.84 1007.64 1007.90 1008.41 1009.28 1010.31 1011.49
994.09 993.31 992.65 992.21 991.91 991.76 991.88 991.87 991.70 991.57 991.50 991.42 991.22 991.32 991.63 991.76 991.64 991.75 992.08 992.44 992.93 993.45 994.17 995.00 995.76 996.46 997.11 997.82 998.60 999.23 1000.29 1001.27 1002.28 1003.13 1004.18 1005.26 1006.16 1006.66 1007.18 1007.97 1008.91 1009.94 1010.98
992.48 991.63 991.00 990.50 990.42 990.46 990.52 990.50 990.44 990.31 990.13 990.20 990.11 990.19 990.44 990.73 990.99 991.09 991.34 991.60 991.80 992.28 992.94 993.82 994.55 995.50 996.33 997.30 998.25 998.98 999.82 1000.70 1001.60 1002.84 1003.87 1004.88 1005.26 1006.12 1006.72 1007.76 1008.84 1009.50 1010.59
991.06 989.51 989.11 988.80 989.00 989.18 989.32 989.48 989.30 989.17 989.22 989.40 989.50 989.70 989.84 990.06 990.48 990.73 991.03 991.12 991.16 991.52 992.22 992.90 994.04 994.97 995.64 996.65 997.76 998.77 1000.04 1000.65 1001.26 1002.40 1004.00 1004.80 1004.80 1005.63 1006.53 1007.68 1008.60 1009.34 1010.35
991.56 990.27 989.49 989.07 988.92 988.91 988.91 988.99 989.02 989.13 989.24 989.28 989.37 989.44 989.52 989.77 989.94 990.18 990.44 990.70 990.98 991.43 991.90 992.83 993.61 994.64 995.54 996.45 997.27 998.46 999.89 1000.75 1001.63 1002.82 1003.59 1003.96 1004.52 1005.50 1006.56 1007.45 1008.35 1009.18 1010.32
Wind_Speed
9 8 7 8 8 6 5 6 5 4 4 4 5 5 5 5 5 5 5 6 7 6 6 7 9 6 5 6 4 5 7 6 7 3 3 10 11 13 13 10 13 9 8
4 8 9 9 8 7 6 7 6 6 6 6 5 6 5 5 5 5 5 6 7 6 10 9 9 6 7 6 6 7 7 5 7 8 7 9 11 13 11 15 11 10 8
6 8 7 9 10 9 9 7 7 7 7 8 8 7 6 6 6 6 6 6 6 7 8 9 10 7 8 5 5 8 7 5 5 5 6 7 10 11 12 11 11 12 9
8 10 7 6 10 11 10 10 8 7 7 7 8 8 7 6 7 7 6 6 5 6 7 8 9 8 10 7 7 8 8 7 4 8 7 9 10 11 10 11 8 11 10
8 10 10 5 5 6 6 6 8 9 9 9 8 8 8 8 8 8 9 9 8 6 6 8 9 9 15 11 7 7 9 7 2 9 9 8 9 12 13 9 8 10 8
5 8 9 9 5 5 7 7 7 7 8 9 9 10 8 8 13 14 9 6 6 6 6 8 9 11 11 14 13 13 11 9 8 8 9 12 13 12 9 11 9 10 6
7 8 10 9 9 7 5 5 8 8 9 10 11 12 13 12 12 11 12 6 6 7 7 8 10 11 10 10 10 10 9 13 16 13 15 15 14 16 13 12 11 11 8
10 10 11 12 12 11 11 11 10 9 11 12 14 15 15 12 13 13 14 9 9 9 9 9 11 12 12 9 8 6 6 7 12 10 13 11 11 13 17 14 14 11 6
12 13 13 14 13 12 13 13 11 12 13 13 14 15 15 14 13 15 12 10 11 10 10 11 13 14 15 14 10 11 8 6 2 5 11 12 11 16 12 9 11 10 8
13 13 13 13 12 12 12 12 11 11 12 11 15 15 16 14 12 16 14 9 11 9 9 11 15 17 15 15 12 12 10 9 8 6 5 8 14 14 15 11 10 11 10
13 13 13 12 12 11 13 12 11 12 11 12 14 14 13 11 11 14 15 11 10 9 10 10 10 15 20 18 16 11 12 10 10 11 9 9 9 11 11 7 10 10 9
13 14 15 14 12 12 14 13 14 13 14 15 15 13 11 12 12 11 13 16 11 10 11 9 9 11 12 15 12 12 15 12 8 8 9 9 10 10 9 7 7 4 6
13 14 15 15 13 13 14 15 14 14 13 14 12 13 13 12 11 18 18 19 19 16 15 14 13 8 8 5 6 12 17 9 10 9 10 9 9 8 6 6 7 9 7
17 17 14 15 16 15 13 13 13 13 14 13 13 12 12 12 11 9 12 13 21 16 16 13 13 11 10 5 6 10 10 10 12 12 11 9 9 9 6 5 7 8 9
16 15 15 13 15 14 14 12 13 14 14 13 12 12 13 12 11 6 1 2 2 10 12 9 6 7 7 5 6 10 9 9 10 10 10 12 11 10 10 6 7 7 7
14 13 13 12 11 11 12 13 19 22 25 21 15 13 12 12 13 6 3 7 4 2 3 6 8 9 9 9 10 10 9 12 11 11 12 13 12 11 10 8 8 9 9
16 15 12 14 12 12 11 12 13 13 19 21 22 25 25 25 20 14 4 10 8 5 7 6 7 8 10 10 11 11 12 12 14 12 13 13 12 11 13 11 10 9 9
16 22 13 12 12 12 12 12 11 12 12 11 17 22 24 27 23 23 14 7 4 4 6 5 7 9 9 10 11 11 11 11 13 13 14 14 13 13 11 12 12 11 11
13 12 11 11 11 13 12 12 11 12 12 11 10 10 13 18 19 19 18 12 13 10 8 8 7 9 9 10 11 11 13 13 14 14 14 14 13 13 12 12 12 13 11
14 21 19 12 11 11 11 11 11 12 11 11 10 11 9 7 9 10 11 11 12 11 10 9 8 9 10 10 11 11 12 12 13 13 13 13 13 13 13 13 13 12 12
11 12 14 11 12 11 11 12 10 11 11 11 12 12 13 10 10 10 10 11 11 11 11 10 10 11 11 12 12 12 12 13 14 14 14 14 13 14 13 12 12 13 12
10 11 11 11 10 11 11 10 11 11 12 12 12 10 11 10 11 10 10 11 11 13 12 13 11 12 12 13 14 14 15 15 15 15 15 14 13 13 12 12 13 13 12
11 12 12 11 10 10 10 10 10 11 11 11 11 8 6 7 8 9 10 10 12 13 12 12 12 12 12 13 14 16 17 17 16 16 16 15 15 14 11 13 14 13 13
10 12 12 10 9 9 9 10 10 12 11 11 8 7 7 6 7 8 8 9 10 11 12 13 13 16 15 14 13 14 15 16 15 16 18 14 14 12 11 13 13 13 12
10 7 7 9 8 8 8 9 8 6 3 3 3 4 5 6 6 7 8 8 9 10 11 13 12 18 21 23 20 20 16 11 17 16 14 18 14 15 14 13 14 12 13
12 11 8 7 5 3 3 2 2 2 2 3 3 4 3 3 5 6 5 7 8 9 12 10 14 20 22 20 23 19 16 14 18 17 14 12 13 12 13 14 16 11 16
Wind_Direction
181 184 194 192 198 203 177 179 192 158 157 184 196 208 223 231 236 238 252 267 272 256 245 253 262 252 249 259 222 247 250 202 205 221 134 141 148 151 157 141 143 139 148
228 201 197 196 192 193 200 192 191 184 184 203 217 219 219 236 239 238 255 270 281 271 250 250 256 260 253 233 247 240 240 224 207 179 182 164 153 166 144 148 154 152 156
285 267 218 200 195 191 197 196 195 196 195 204 220 220 219 227 235 233 239 250 263 278 280 265 240 243 256 241 219 245 241 236 204 147 166 154 148 142 150 155 168 151 159
307 276 271 220 206 198 185 187 198 208 217 214 219 225 231 231 239 240 245 249 259 272 281 281 267 246 249 243 234 234 238 233 206 153 167 165 151 159 158 161 177 149 144
15 357 338 321 190 184 186 195 199 208 220 227 235 234 226 228 233 230 235 240 234 246 274 285 277 254 240 229 225 220 233 234 154 156 160 170 165 168 174 168 170 141 171
355 330 322 325 294 219 206 204 225 218 225 231 239 245 246 241 230 231 224 223 233 243 258 277 282 285 286 253 236 216 204 231 168 160 166 175 191 179 167 170 171 163 175
322 307 298 299 290 290 273 251 234 223 233 236 240 241 243 242 239 216 208 218 224 232 238 251 266 267 265 274 228 225 233 208 173 183 182 188 180 181 164 166 190 185 178
280 278 277 279 279 279 275 265 256 246 237 236 238 239 240 241 231 220 220 231 237 238 239 247 255 263 263 259 278 244 207 212 197 186 192 182 178 171 171 179 185 174 129
280 275 273 271 265 266 267 261 254 245 242 242 242 241 241 244 227 219 209 226 235 237 241 244 248 253 252 235 240 248 239 235 182 261 166 162 159 158 172 178 175 159 148
283 284 283 284 284 275 269 267 268 268 261 252 247 242 240 242 231 212 198 227 240 244 245 248 245 242 241 236 225 232 230 195 172 150 135 139 151 170 182 218 167 158 151
281 285 286 292 295 297 302 294 284 279 275 282 265 247 243 249 243 214 207 220 232 238 246 252 249 244 231 227 216 225 213 178 194 184 173 157 163 176 183 212 174 167 165
299 294 290 287 286 289 288 285 287 282 283 263 257 264 244 238 238 237 210 219 230 240 243 249 259 278 227 202 204 226 165 162 166 179 172 171 173 175 192 149 167 133 164
283 283 284 274 269 267 266 267 271 266 268 260 265 253 247 237 235 228 225 218 223 235 244 241 239 247 237 232 199 168 152 163 167 169 170 160 164 138 94 80 82 81 101
278 272 271 268 267 264 261 258 255 253 252 258 254 253 257 250 228 219 230 235 238 233 239 239 235 230 195 190 130 170 172 171 169 171 161 146 137 118 111 121 118 119 116
272 266 262 259 258 257 254 255 254 251 248 248 252 254 250 257 257 188 259 338 341 277 224 218 210 216 209 171 169 182 174 164 167 156 150 149 146 141 129 142 149 131 140
267 262 256 256 255 254 255 258 247 248 255 260 255 247 265 277 300 258 199 129 61 9 216 188 198 208 203 177 179 177 173 160 162 158 155 152 152 145 141 158 167 145 150
257 257 255 251 250 249 248 250 259 251 240 240 245 249 248 251 259 278 123 117 131 158 262 210 194 194 190 175 176 177 175 170 163 160 157 154 148 152 155 164 166 156 158
258 256 255 253 248 244 242 244 246 250 252 249 237 234 240 242 235 237 224 165 232 198 231 261 210 185 189 178 175 175 167 166 168 163 163 156 153 151 163 174 170 161 159
266 260 256 254 250 244 239 239 238 240 244 249 252 244 226 230 217 214 208 227 235 227 207 220 218 189 182 179 174 172 166 170 168 166 165 159 155 156 179 179 164 156 159
267 259 252 254 255 250 245 234 234 236 236 239 240 241 237 215 216 216 213 218 226 222 214 202 202 195 181 176 174 169 167 164 164 165 156 158 156 167 185 174 162 158 160
263 259 246 245 243 239 237 242 231 228 232 235 237 234 225 220 223 215 209 205 206 208 206 201 200 189 181 174 170 169 162 164 162 162 158 157 166 169 187 171 161 152 159
266 262 254 245 235 231 230 230 231 234 227 232 241 239 212 219 226 213 210 207 205 204 192 191 184 180 179 173 168 165 165 163 161 159 157 162 164 183 182 162 156 157 161
263 256 251 245 239 229 223 228 228 230 237 238 240 230 189 207 213 204 198 193 194 197 186 184 180 178 178 171 172 166 169 166 165 161 160 163 172 185 168 159 156 164 167
263 251 246 239 225 222 219 225 225 227 230 234 230 197 201 203 203 208 201 199 187 186 180 178 178 174 171 168 171 172 172 163 161 160 156 164 183 163 159 156 165 164 158
315 305 230 223 214 205 216 225 236 215 169 148 171 186 197 191 196 206 208 197 182 163 169 161 166 170 166 164 165 165 159 147 153 147 157 186 168 157 156 157 167 158 148
352 354 17 18 34 44 65 57 76 100 140 153 173 186 168 166 154 152 155 156 159 162 150 156 155 158 157 160 159 143 143 144 137 153 181 172 157 154 158 158 162 148 150